Weather History for Iowa City, IA

Change the Weather History Date:

Thursday, November 1, 2012

  Actual Average Record
Temperature  
Mean Temperature 46 °F 46 °F  
Max Temperature 60 °F 56 °F 79 °F (2000)
Min Temperature 31 °F 37 °F 20 °F (1951)
Degree Days  
Heating Degree Days 19 19  
Month to date heating degree days 19 19  
Since 1 July heating degree days 619 544  
Cooling Degree Days 0 0  
Month to date cooling degree days 0 0  
Year to date cooling degree days 1266 912  
Moisture  
Dew Point 30 °F    
Average Humidity 58    
Maximum Humidity 76    
Minimum Humidity 40    
Precipitation  
Precipitation 0.00 in 0.10 in 1.71 in (1985)
Month to date precipitation 0.00 0.10  
Year to date precipitation 23.20 32.51  
Sea Level Pressure  
Sea Level Pressure 29.95 in    
Wind  
Wind Speed 6 mph (NW)    
Max Wind Speed 17 mph    
Max Gust Speed 22 mph    
Visibility 10 miles    
Events      
T = Trace of Precipitation, MM = Missing Value Source: NWS Daily Summary

Daily Weather History Graph

Daily Weather History Graph

Search for Another Location

Airport:

Trip Planner

Search our weather history database for the weather conditions in past years. The results will help you decide how hot, cold, wet, or windy it might be!

Date:

Astronomy

Nov. 01, 2012 Rise Set
Actual Time 7:38 AM CDT 6:00 PM CDT
Civil Twilight 7:09 AM CDT 6:29 PM CDT
Nautical Twilight 6:37 AM CDT 7:01 PM CDT
Astronomical Twilight 6:04 AM CDT 7:34 PM CDT
Moon 7:55 PM CDT (11/1) 10:13 AM CDT (11/1)
Length of Visible Light 11h 19m
Length of Day
10h 21m
Waning Gibbous, 93% of the Moon is Illuminated
Nov 1
Waning Gibbous
Nov 6
Last Quarter
Nov 13
New
Nov 20
First Quarter
Nov 28
Full

Hourly Weather History & Observations

Time (CDT) Temp. Windchill Dew Point Humidity Pressure Visibility Wind Dir Wind Speed Gust Speed Precip Events Conditions
12:52 AM 33.1 °F 30.0 °F 23.0 °F 66% 29.99 in 10.0 mi West 3.5 mph - N/A   Clear
1:52 AM 34.0 °F - 23.0 °F 64% 29.99 in 10.0 mi Calm Calm - N/A   Clear
2:52 AM 34.0 °F 31.0 °F 25.0 °F 70% 29.98 in 10.0 mi WSW 3.5 mph - N/A   Partly Cloudy
3:52 AM 36.0 °F - 25.0 °F 64% 29.97 in 10.0 mi Calm Calm - N/A   Mostly Cloudy
4:52 AM 35.1 °F - 28.0 °F 76% 29.97 in 10.0 mi Calm Calm - N/A   Overcast
5:52 AM 36.0 °F - 28.0 °F 73% 29.96 in 10.0 mi Calm Calm - N/A   Mostly Cloudy
6:52 AM 35.1 °F - 28.0 °F 76% 29.97 in 10.0 mi Calm Calm - N/A   Overcast
7:52 AM 36.0 °F - 28.9 °F 76% 29.97 in 10.0 mi Calm Calm - N/A   Overcast
8:52 AM 37.9 °F - 30.9 °F 76% 29.97 in 9.0 mi Calm Calm - N/A   Overcast
9:52 AM 44.1 °F 42.5 °F 30.9 °F 60% 29.96 in 10.0 mi SW 3.5 mph - N/A   Overcast
10:52 AM 50.0 °F - 34.0 °F 54% 29.96 in 10.0 mi NW 8.1 mph - N/A   Mostly Cloudy
11:52 AM 52.0 °F - 35.1 °F 53% 29.95 in 10.0 mi WNW 6.9 mph - N/A   Clear
12:52 PM 55.9 °F - 35.1 °F 45% 29.93 in 10.0 mi North 8.1 mph - N/A   Partly Cloudy
1:52 PM 57.9 °F - 34.0 °F 41% 29.90 in 10.0 mi NNW 10.4 mph - N/A   Clear
2:52 PM 59.0 °F - 35.1 °F 41% 29.89 in 10.0 mi WNW 12.7 mph 18.4 mph N/A   Clear
3:52 PM 59.0 °F - 35.1 °F 41% 29.89 in 10.0 mi WNW 15.0 mph 21.9 mph N/A   Clear
4:52 PM 57.0 °F - 34.0 °F 42% 29.88 in 10.0 mi NW 15.0 mph - N/A   Clear
5:52 PM 53.1 °F - 30.0 °F 41% 29.91 in 10.0 mi NW 11.5 mph - N/A   Clear
6:52 PM 50.0 °F - 32.0 °F 50% 29.93 in 10.0 mi NNW 9.2 mph - N/A   Clear
7:52 PM 48.0 °F - 32.0 °F 54% 29.96 in 10.0 mi NNW 9.2 mph - N/A   Clear
8:52 PM 46.0 °F 41.9 °F 30.9 °F 56% 29.96 in 10.0 mi NNW 8.1 mph - N/A   Clear
9:52 PM 44.1 °F 38.6 °F 30.0 °F 58% 29.98 in 10.0 mi North 10.4 mph - N/A   Clear
10:52 PM 42.1 °F 37.7 °F 28.9 °F 60% 29.99 in 10.0 mi North 6.9 mph - N/A   Clear
11:52 PM 39.9 °F 34.5 °F 28.0 °F 63% 30.01 in 10.0 mi North 8.1 mph - N/A   Clear